Weather History for La Junta, CO

Change the Weather History Date:

Saturday, August 23, 2014

  Actual Average Record
Temperature  
Mean Temperature 75 °F 75 °F  
Max Temperature 92 °F 90 °F 102 °F (2011)
Min Temperature 58 °F 61 °F 52 °F (1964)
Degree Days  
Heating Degree Days 0 0  
Month to date heating degree days 0 0  
Since 1 June heating degree days 5 17  
Since 1 July heating degree days 0 1  
Cooling Degree Days 10 10  
Month to date cooling degree days 278 272  
Year to date cooling degree days 1117 1003  
Since 1 June cooling degree days 995 930  
Growing Degree Days 24 (Base 50)    
Moisture  
Dew Point 52 °F    
Average Humidity 60    
Maximum Humidity 100    
Minimum Humidity 19    
Precipitation  
Precipitation 0.00 in 0.05 in 0.67 in (1969)
Month to date precipitation 2.12 1.26  
Year to date precipitation 10.65 8.74  
Sea Level Pressure  
Sea Level Pressure 29.75 in    
Wind  
Wind Speed 10 mph (WSW)    
Max Wind Speed 23 mph    
Max Gust Speed 28 mph    
Visibility 10 miles    
Events      
T = Trace of Precipitation, MM = Missing Value Source: NWS Daily Summary

Daily Weather History Graph

Daily Weather History Graph

Search for Another Location

Airport:

Trip Planner

Search our weather history database for the weather conditions in past years. The results will help you decide how hot, cold, wet, or windy it might be!

Date:

Astronomy

Aug. 23, 2014 Rise Set
Actual Time 6:16 AM MDT 7:36 PM MDT
Civil Twilight 5:48 AM MDT 8:03 PM MDT
Nautical Twilight 5:15 AM MDT 8:36 PM MDT
Astronomical Twilight 4:41 AM MDT 9:11 PM MDT
Moon 4:35 AM MDT (8/23) 6:22 PM MDT (8/23)
Length of Visible Light 14h 15m
Length of Day
13h 20m
Waning Crescent, 3% of the Moon is Illuminated
Aug 23
Waning Crescent
Aug 25
New
Sep 2
First Quarter
Sep 8
Full
Sep 15
Last Quarter

Hourly Weather History & Observations

Time (MDT) Temp. Heat Index Dew Point Humidity Pressure Visibility Wind Dir Wind Speed Gust Speed Precip Events Conditions
12:53 AM 64.9 °F - 62.1 °F 90% 29.82 in 10.0 mi South 4.6 mph - N/A   Clear
1:53 AM 64.9 °F - 62.1 °F 90% 29.79 in 10.0 mi South 6.9 mph - N/A   Clear
3:53 AM 61.0 °F - 59.0 °F 93% 29.78 in 10.0 mi Calm Calm - N/A   Clear
6:53 AM 57.9 °F - 57.0 °F 97% 29.81 in 10.0 mi South 6.9 mph - N/A   Clear
7:00 AM 57.9 °F - 57.0 °F 97% 29.94 in 10.0 mi SSW 8.1 mph - N/A   Partly Cloudy
7:53 AM 62.1 °F - 59.0 °F 90% 29.79 in 10.0 mi WSW 8.1 mph - N/A   Clear
8:53 AM 70.0 °F - 55.9 °F 61% 29.78 in 10.0 mi WSW 11.5 mph - N/A   Clear
9:53 AM 75.9 °F - 54.0 °F 46% 29.75 in 10.0 mi West 15.0 mph - N/A   Clear
10:53 AM 80.1 °F 79.9 °F 53.1 °F 39% 29.74 in 10.0 mi SW 9.2 mph - N/A   Clear
11:53 AM 84.9 °F - 48.9 °F 29% 29.72 in 10.0 mi WSW 16.1 mph - N/A   Clear
12:53 PM 88.0 °F - 48.0 °F 25% 29.69 in 10.0 mi WSW 13.8 mph 20.7 mph N/A   Clear
1:53 PM 88.0 °F - 46.9 °F 24% 29.68 in 10.0 mi NW 6.9 mph - N/A   Clear
3:53 PM 91.0 °F - 45.0 °F 20% 29.64 in 10.0 mi WSW 13.8 mph - N/A   Clear
4:53 PM 91.0 °F - 44.1 °F 20% 29.63 in 10.0 mi SW 10.4 mph - N/A   Partly Cloudy
5:53 PM 90.0 °F - 41.0 °F 18% 29.63 in 10.0 mi SW 12.7 mph - N/A   Clear
6:53 PM 86.0 °F - 46.0 °F 25% 29.65 in 10.0 mi WSW 10.4 mph - N/A   Clear
7:53 PM 81.0 °F - 45.0 °F 28% 29.67 in 10.0 mi WSW 12.7 mph - N/A   Clear
8:53 PM 78.1 °F - 45.0 °F 31% 29.68 in 10.0 mi WSW 13.8 mph - N/A   Clear
9:35 PM 73.0 °F - 53.1 °F 49% 29.90 in 10.0 mi North 13.8 mph - N/A   Clear
9:43 PM 72.0 °F - 55.0 °F 55% 29.91 in 10.0 mi North 12.7 mph - N/A   Clear
9:53 PM 71.1 °F - 55.0 °F 57% 29.73 in 10.0 mi North 12.7 mph - N/A   Clear
10:53 PM 66.9 °F - 55.9 °F 68% 29.75 in 10.0 mi NNW 8.1 mph - N/A   Clear
11:53 PM 68.0 °F - 55.0 °F 63% 29.75 in 10.0 mi NNW 12.7 mph - N/A   Clear